[[{"header":{"parameterUnit":"m.s-1","parameterCategory":1,"la1":30.2991,"la2":30.254,"lo1":-89.0895,"lo2":-89.0444,"dy":0.0017,"dx":0.0017,"nx":28,"ny":28,"refTime":"2024-06-13T03:00:00:Z","depth":0,"parameterNumber":2,"parameterNumberName":"U-component_of_WINDS"},"data":[0,0,0,0,0,0,0,0,0,0,0,0,0,0,0,0,0,0,0,0,0,0,0,0,0,0,0,0,0,0,0,0,0,0,0,0,0,0,0,0,0,0,0,0,0,0,0,0,0,0,0,0,0,0,0,0,0,0,-1.3278,-1.3277,0,-1.3209,-1.3208,-1.3207,-1.3158,-1.3158,-1.3157,-1.3157,-1.3087,-1.3086,-1.3084,0,0,0,0,0,0,0,0,0,0,0,0,0,-1.3369,-1.3367,-1.3278,-1.3277,-1.3276,-1.3209,-1.3208,-1.3207,-1.3158,-1.3158,-1.3157,-1.3157,-1.3088,-1.3086,-1.3084,0,0,0,0,0,0,0,0,0,0,0,0,0,-1.3318,-1.3367,-1.3278,-1.3244,-1.324,-1.3209,-1.3208,-1.3207,-1.3158,-1.3158,-1.3157,-1.3157,-1.3088,-1.3086,-1.3084,-1.3082,0,0,-1.3077,-1.3076,0,0,0,0,0,0,0,0,-1.3321,-1.3314,-1.325,-1.3246,-1.3242,-1.3191,-1.3214,-1.3165,-1.3158,-1.3189,-1.3157,-1.3156,-1.3123,-1.3118,-1.3106,-1.3079,-1.3076,-1.3077,-1.3076,-1.3075,-1.3074,0,0,0,0,0,0,0,-1.3324,-1.3317,-1.3251,-1.3249,-1.3244,-1.3232,-1.3224,-1.3205,-1.316,-1.3187,-1.3183,-1.3175,-1.312,-1.3108,-1.3104,-1.3075,-1.3077,-1.3075,-1.3074,-1.3073,-1.3045,-1.3046,0,0,0,0,0,0,-1.3333,-1.332,-1.3253,-1.3248,-1.328,-1.3231,-1.3222,-1.3208,-1.316,-1.3152,-1.3176,-1.3173,-1.3112,-1.3107,-1.3101,-1.3097,-1.3075,-1.3073,-1.3071,-1.3045,-1.3045,-1.3046,0,0,0,0,0,0,-1.3335,-1.3327,-1.3256,-1.3283,-1.3273,-1.323,-1.3215,-1.3207,-1.3195,-1.3152,-1.3144,-1.3172,-1.3112,-1.3104,-1.3088,-1.3094,-1.3072,-1.307,-1.3044,-1.3045,-1.3046,-1.3089,0,0,0,0,0,0,-1.3338,-1.3328,-1.3327,-1.3284,-1.3272,-1.3243,-1.3215,-1.3206,-1.3191,-1.3187,-1.3146,-1.3139,-1.3111,-1.3091,-1.3086,-1.3091,-1.3068,-1.3043,-1.3044,-1.3045,-1.3086,-1.3091,-1.3095,0,0,0,0,0,-1.3341,-1.3342,-1.3327,-1.3319,-1.3269,-1.3243,-1.3237,-1.3204,-1.3192,-1.319,-1.3163,-1.314,-1.3094,-1.309,-1.3083,-1.3088,-1.3043,-1.3044,-1.3045,-1.3085,-1.309,-1.3094,0,0,0,0,0,0,-1.3387,-1.3335,-1.3319,-1.3305,-1.3279,-1.3235,-1.3232,-1.321,-1.3187,-1.3185,-1.3145,-1.3137,-1.3124,-1.3104,-1.31,-1.3084,-1.3066,-1.3066,-1.3098,-1.3103,-1.3107,-1.3112,-1.3066,0,0,0,0,0,-1.3395,-1.3378,-1.3334,-1.3326,-1.3314,-1.3275,-1.3263,-1.324,-1.3212,-1.32,-1.3172,-1.3145,-1.3125,-1.3113,-1.3091,-1.3083,-1.3074,-1.3083,-1.3087,-1.3091,-1.3091,-1.3087,-1.3091,-1.305,-1.305,-1.305,0,0,-1.3412,-1.3382,-1.3374,-1.3335,-1.3312,-1.3296,-1.3266,-1.325,-1.3238,-1.3198,-1.3181,-1.3159,-1.3127,-1.3115,-1.3108,-1.3098,-1.3101,-1.3092,-1.3095,-1.3094,-1.3089,-1.3093,-1.3096,-1.3051,-1.3051,-1.3051,0,0,-1.3436,-1.3411,-1.3402,-1.338,-1.3345,-1.332,-1.3318,-1.3278,-1.3262,-1.3244,-1.3214,-1.3199,-1.3164,-1.3143,-1.3128,-1.3145,-1.3123,-1.3139,-1.3161,-1.3157,-1.316,-1.3163,-1.317,-1.3173,-1.314,-1.314,-1.314,0,-1.3461,-1.3435,-1.34,-1.3386,-1.337,-1.3333,-1.3325,-1.3305,-1.3266,-1.3256,-1.3245,-1.3202,-1.3178,-1.3161,-1.3165,-1.3154,-1.3151,-1.3144,-1.3162,-1.3165,-1.3167,-1.3173,-1.3176,-1.3142,-1.3142,-1.3142,-1.3141,0,-1.3469,-1.3452,-1.3449,-1.3413,-1.3396,-1.3385,-1.3349,-1.3337,-1.3316,-1.3292,-1.3275,-1.3245,-1.3217,-1.3212,-1.3191,-1.3192,-1.3187,-1.317,-1.315,-1.3173,-1.3179,-1.3181,-1.3145,-1.3144,-1.3144,-1.3143,0,0,-1.3519,-1.3464,-1.3463,-1.3447,-1.3407,-1.3393,-1.3381,-1.3354,-1.3345,-1.332,-1.3309,-1.3281,-1.3265,-1.3248,-1.3225,-1.3221,-1.3238,-1.3204,-1.3203,-1.3213,-1.324,-1.3254,-1.3257,-1.3223,-1.3224,-1.3224,-1.3243,0,-1.3537,-1.3513,-1.3481,-1.3468,-1.3452,-1.3417,-1.3406,-1.3381,-1.3359,-1.3342,-1.3317,-1.3299,-1.3279,-1.3268,-1.3263,-1.3237,-1.3243,-1.3235,-1.3214,-1.3214,-1.3224,-1.326,-1.3274,-1.3294,-1.3245,-1.3245,-1.3245,0,-1.3555,-1.3531,-1.3516,-1.3479,-1.3471,-1.3462,-1.3436,-1.342,-1.3392,-1.3376,-1.3357,-1.3332,-1.3318,-1.3301,-1.3282,-1.3277,-1.3267,-1.3253,-1.3253,-1.325,-1.3232,-1.326,-1.3299,-1.3303,-1.3248,-1.3248,-1.3248,0,-1.3594,-1.3559,-1.3546,-1.3532,-1.3488,-1.3483,-1.3464,-1.3435,-1.3421,-1.3398,-1.3389,-1.3365,-1.3353,-1.3335,-1.3305,-1.3294,-1.329,-1.3269,-1.3277,-1.3278,-1.3278,-1.3279,-1.3318,-1.327,-1.327,-1.327,-1.327,0,-1.3618,-1.361,-1.3563,-1.3555,-1.3546,-1.351,-1.3502,-1.3481,-1.3455,-1.3443,-1.3411,-1.3401,-1.336,-1.3345,-1.3321,-1.3311,-1.3305,-1.3292,-1.3286,-1.3296,-1.3298,-1.3289,-1.3288,-1.3271,-1.3271,-1.327,-1.327,0,-1.3661,-1.3628,-1.3612,-1.3571,-1.3561,-1.3557,-1.3522,-1.3514,-1.349,-1.3475,-1.3469,-1.3432,-1.3413,-1.338,-1.3352,-1.3336,-1.333,-1.3319,-1.334,-1.3336,-1.3347,-1.3347,-1.3383,-1.3386,-1.3335,-1.3336,-1.3336,0,-1.3678,-1.3672,-1.3631,-1.3621,-1.3603,-1.3587,-1.3573,-1.3538,-1.3525,-1.3492,-1.3488,-1.3466,-1.3447,-1.3419,-1.3389,-1.3368,-1.3357,-1.3371,-1.3353,-1.3364,-1.3359,-1.336,-1.336,-1.3375,-1.3376,-1.3377,-1.3377,0,-1.3714,-1.3699,-1.368,-1.3656,-1.364,-1.362,-1.3597,-1.3591,-1.3551,-1.3538,-1.3518,-1.3503,-1.3475,-1.3454,-1.3429,-1.341,-1.3388,-1.3383,-1.3384,-1.3394,-1.3407,-1.3402,-1.3352,-1.3382,-1.3382,-1.3381,-1.3381,-1.3381,-1.3745,-1.3739,-1.3709,-1.369,-1.3669,-1.365,-1.364,-1.3615,-1.3598,-1.3572,-1.3552,-1.3534,-1.3507,-1.347,-1.3453,-1.3439,-1.3429,-1.343,-1.343,-1.3432,-1.3436,-1.3408,-1.3434,-1.3434,-1.3434,-1.3434,-1.3434,0,-1.3781,-1.376,-1.3743,-1.3713,-1.3698,-1.3677,-1.3652,-1.3641,-1.3626,-1.3602,-1.3584,-1.3562,-1.3542,-1.3512,-1.349,-1.3485,-1.3474,-1.3481,-1.3481,-1.3478,-1.3446,-1.3448,-1.349,-1.349,-1.349,-1.349,-1.349,-1.349,-1.3797,-1.3785,-1.3767,-1.3745,-1.3724,-1.3706,-1.3694,-1.3676,-1.3657,-1.3634,-1.3617,-1.3597,-1.3571,-1.3548,-1.3529,-1.3521,-1.3515,-1.3525,-1.3514,-1.3485,-1.348,-1.3475,-1.3477,-1.3524,-1.3524,-1.3547,-1.3547,-1.3547]},{"header":{"parameterUnit":"m.s-1","parameterCategory":1,"la1":30.2991,"la2":30.254,"lo1":-89.0895,"lo2":-89.0444,"dy":0.0017,"dx":0.0017,"nx":28,"ny":28,"refTime":"2024-06-13T03:00:00:Z","depth":0,"parameterNumber":3,"parameterNumberName":"V-component_of_WINDS"},"data":[0,0,0,0,0,0,0,0,0,0,0,0,0,0,0,0,0,0,0,0,0,0,0,0,0,0,0,0,0,0,0,0,0,0,0,0,0,0,0,0,0,0,0,0,0,0,0,0,0,0,0,0,0,0,0,0,0,0,0.272,0.272,0,0.2726,0.2726,0.2726,0.2739,0.2739,0.2739,0.274,0.2745,0.2745,0.2745,0,0,0,0,0,0,0,0,0,0,0,0,0,0.2717,0.2717,0.272,0.272,0.272,0.2726,0.2726,0.2726,0.2739,0.2739,0.274,0.274,0.2745,0.2745,0.2745,0,0,0,0,0,0,0,0,0,0,0,0,0,0.272,0.2717,0.272,0.2727,0.2728,0.2726,0.2726,0.2726,0.2739,0.2739,0.274,0.274,0.2745,0.2745,0.2745,0.2736,0,0,0.2744,0.2744,0,0,0,0,0,0,0,0,0.272,0.272,0.2726,0.2727,0.2727,0.2732,0.2727,0.2729,0.2739,0.2735,0.274,0.274,0.274,0.2741,0.2741,0.2736,0.2737,0.2744,0.2744,0.2744,0.2744,0,0,0,0,0,0,0,0.272,0.272,0.2722,0.2726,0.2727,0.2729,0.273,0.2728,0.2735,0.2735,0.2736,0.2737,0.2741,0.2741,0.2741,0.2737,0.2744,0.2744,0.2744,0.2744,0.2723,0.2723,0,0,0,0,0,0,0.2719,0.272,0.2722,0.2722,0.2725,0.2729,0.273,0.273,0.2735,0.2736,0.2736,0.2737,0.2741,0.2741,0.2741,0.273,0.2744,0.2744,0.2744,0.2723,0.2723,0.2722,0,0,0,0,0,0,0.2719,0.2719,0.2722,0.2721,0.2722,0.2729,0.2729,0.273,0.273,0.2736,0.2737,0.2735,0.2741,0.2742,0.2737,0.273,0.2744,0.2744,0.2724,0.2723,0.2723,0.2708,0,0,0,0,0,0,0.2719,0.2719,0.2716,0.2721,0.2722,0.2718,0.2728,0.273,0.273,0.2731,0.2736,0.2737,0.2742,0.2737,0.2737,0.273,0.2744,0.2725,0.2724,0.2723,0.2709,0.2707,0.2705,0,0,0,0,0,0.2718,0.2712,0.2716,0.2716,0.2719,0.2717,0.2718,0.2724,0.273,0.2726,0.273,0.2736,0.2731,0.2736,0.2736,0.273,0.2725,0.2724,0.2723,0.271,0.2707,0.2705,0,0,0,0,0,0,0.2706,0.2713,0.2717,0.2712,0.2714,0.272,0.2716,0.2721,0.2721,0.2723,0.273,0.2731,0.2725,0.2727,0.2733,0.272,0.2729,0.2728,0.2719,0.2717,0.2715,0.2714,0.2744,0,0,0,0,0,0.2703,0.2701,0.2707,0.2702,0.2703,0.2709,0.2709,0.2714,0.2716,0.2716,0.272,0.2721,0.2719,0.2718,0.2717,0.2709,0.2709,0.2705,0.2703,0.2701,0.2699,0.2693,0.269,0.2719,0.2719,0.2719,0,0,0.2696,0.2699,0.2698,0.27,0.2702,0.2699,0.271,0.2707,0.2705,0.2716,0.2711,0.2714,0.2715,0.2708,0.2706,0.271,0.2691,0.2699,0.2698,0.2697,0.2692,0.2689,0.2687,0.2718,0.2718,0.2718,0,0,0.2682,0.2685,0.268,0.2682,0.2684,0.2688,0.2687,0.2691,0.2693,0.2689,0.2696,0.2693,0.2691,0.2692,0.2692,0.2676,0.2681,0.2675,0.2664,0.2658,0.2656,0.2654,0.2646,0.2644,0.2674,0.2674,0.2674,0,0.2673,0.267,0.2677,0.2674,0.2674,0.2683,0.2677,0.2678,0.268,0.268,0.2685,0.2681,0.2683,0.2675,0.2671,0.2671,0.2669,0.2675,0.2656,0.2654,0.2652,0.2645,0.2642,0.2673,0.2673,0.2674,0.2674,0,0.2658,0.2656,0.2652,0.2653,0.2652,0.2648,0.2653,0.2652,0.2656,0.2659,0.2653,0.2656,0.2655,0.2654,0.2658,0.2646,0.2648,0.2654,0.2663,0.2648,0.2642,0.2639,0.2672,0.2672,0.2673,0.2673,0,0,0.2637,0.2641,0.2639,0.2639,0.2642,0.264,0.2635,0.2634,0.2632,0.2633,0.2628,0.2625,0.263,0.263,0.2634,0.2629,0.2614,0.2636,0.2636,0.263,0.2598,0.2592,0.2589,0.2618,0.2617,0.2617,0.2597,0,0.2623,0.2615,0.2621,0.2612,0.2608,0.2616,0.2612,0.2613,0.2615,0.2612,0.2615,0.2612,0.262,0.2619,0.2615,0.2617,0.2607,0.2618,0.2612,0.2612,0.261,0.2586,0.258,0.2562,0.2595,0.2595,0.2594,0,0.2605,0.2604,0.2595,0.2596,0.2595,0.2591,0.2589,0.2587,0.2587,0.2589,0.2588,0.2593,0.2588,0.2597,0.2588,0.2595,0.2593,0.2593,0.2593,0.2591,0.2601,0.2582,0.2556,0.2552,0.2591,0.2591,0.2591,0,0.2589,0.2585,0.2579,0.2579,0.2581,0.2577,0.2578,0.2579,0.2577,0.2575,0.2574,0.2571,0.257,0.2567,0.2571,0.2578,0.2561,0.2571,0.2561,0.2561,0.2556,0.2556,0.2527,0.2557,0.2557,0.2557,0.2557,0,0.2572,0.2565,0.2571,0.2567,0.2559,0.2565,0.2557,0.2558,0.2558,0.2554,0.2561,0.2556,0.2562,0.2558,0.2561,0.2552,0.2551,0.2552,0.2552,0.255,0.255,0.2548,0.2548,0.2557,0.2557,0.2557,0.2557,0,0.2552,0.2556,0.2549,0.2551,0.2551,0.2545,0.2546,0.2542,0.2544,0.2538,0.2537,0.254,0.2535,0.2539,0.2534,0.2536,0.2523,0.2527,0.2523,0.2523,0.2512,0.2512,0.248,0.2475,0.251,0.2509,0.2509,0,0.254,0.2535,0.2536,0.2533,0.2533,0.2529,0.2527,0.2532,0.2529,0.2528,0.2523,0.2518,0.2515,0.2506,0.2507,0.2503,0.2505,0.2494,0.2505,0.2502,0.2503,0.2502,0.2501,0.2492,0.2491,0.2491,0.2491,0,0.2518,0.252,0.2517,0.2513,0.251,0.2508,0.2506,0.2503,0.2508,0.2505,0.2499,0.2496,0.2491,0.2485,0.2481,0.2481,0.2486,0.2487,0.2484,0.2481,0.2479,0.2478,0.2515,0.2488,0.2488,0.2488,0.2489,0.2489,0.2501,0.2496,0.2495,0.249,0.2489,0.2487,0.2482,0.2483,0.2479,0.2474,0.2478,0.2471,0.2469,0.2464,0.2463,0.2457,0.2461,0.2457,0.2456,0.2455,0.2452,0.2481,0.2456,0.2456,0.2456,0.2456,0.2456,0,0.2478,0.2477,0.2473,0.247,0.2465,0.2471,0.2468,0.2464,0.2458,0.2456,0.2452,0.2444,0.2439,0.2439,0.2434,0.2428,0.243,0.2427,0.2426,0.2425,0.245,0.2452,0.2425,0.2425,0.2425,0.2425,0.2425,0.2425,0.2465,0.2456,0.2457,0.2447,0.2447,0.2439,0.2437,0.2435,0.2433,0.2424,0.2419,0.2419,0.2418,0.2412,0.2406,0.2406,0.2403,0.2398,0.2399,0.2421,0.2424,0.2427,0.2429,0.2398,0.2398,0.2375,0.2375,0.2375]}]]